Time,TemperatureF,DewpointF,PressureIn,WindDirection,WindDirectionDegrees,WindSpeedMPH,WindSpeedGustMPH,Humidity,HourlyPrecipIn,Conditions,Clouds,dailyrainin,SoftwareType,DateUTC
2015-04-25 00:04:00,78.8,71.0,29.95,ENE,69,6.2,7.4,77,0.00,,,0.51,TxWx,2015-04-25 04:04:00,
2015-04-25 00:09:00,78.9,71.0,29.95,East,91,8.7,10.5,76,0.00,,,0.00,TxWx,2015-04-25 04:09:00,
2015-04-25 00:14:00,78.8,71.0,29.95,East,91,9.9,9.9,76,0.00,,,0.00,TxWx,2015-04-25 04:14:00,
2015-04-25 00:19:00,78.9,71.0,29.95,East,91,5.6,6.2,76,0.00,,,0.00,TxWx,2015-04-25 04:19:00,
2015-04-25 00:24:00,79.0,71.0,29.95,ENE,69,8.0,8.7,76,0.00,,,0.00,TxWx,2015-04-25 04:24:00,
2015-04-25 00:29:00,79.0,71.0,29.95,East,91,8.0,8.0,76,0.00,,,0.00,TxWx,2015-04-25 04:29:00,
2015-04-25 00:34:00,79.0,71.0,29.96,East,91,9.3,9.3,76,0.00,,,0.00,TxWx,2015-04-25 04:34:00,
2015-04-25 00:39:00,79.0,71.0,29.95,East,91,9.9,9.9,76,0.00,,,0.00,TxWx,2015-04-25 04:39:00,
2015-04-25 00:44:00,79.2,70.0,29.96,East,91,8.7,8.7,75,0.00,,,0.00,TxWx,2015-04-25 04:44:00,
2015-04-25 00:49:00,79.2,70.0,29.95,ESE,114,6.8,6.8,75,0.00,,,0.00,TxWx,2015-04-25 04:49:00,
2015-04-25 00:54:00,79.0,71.0,29.95,East,91,9.3,9.9,76,0.00,,,0.00,TxWx,2015-04-25 04:54:00,
2015-04-25 00:59:00,79.2,71.0,29.95,East,91,8.7,8.7,76,0.00,,,0.00,TxWx,2015-04-25 04:59:00,
2015-04-25 01:04:00,79.1,71.0,29.95,East,91,8.7,11.1,76,0.00,,,0.00,TxWx,2015-04-25 05:04:00,
2015-04-25 01:09:00,79.3,71.0,29.95,East,91,8.7,8.7,77,0.00,,,0.00,TxWx,2015-04-25 05:09:00,
2015-04-25 01:19:00,79.2,71.0,29.95,ESE,114,8.7,8.7,77,0.00,,,0.00,TxWx,2015-04-25 05:19:00,
2015-04-25 01:24:00,79.0,71.0,29.95,East,91,10.5,11.1,77,0.00,,,0.00,TxWx,2015-04-25 05:24:00,
2015-04-25 01:29:00,79.2,71.0,29.95,East,91,8.7,9.9,76,0.00,,,0.00,TxWx,2015-04-25 05:29:00,
2015-04-25 01:34:00,79.1,71.0,29.94,ESE,114,8.0,8.0,76,0.00,,,0.00,TxWx,2015-04-25 05:34:00,
2015-04-25 01:39:00,78.9,71.0,29.94,ESE,114,7.4,7.4,77,0.00,,,0.00,TxWx,2015-04-25 05:39:00,
2015-04-25 01:44:00,78.7,71.0,29.94,ESE,114,9.3,9.3,77,0.00,,,0.00,TxWx,2015-04-25 05:44:00,
2015-04-25 01:49:00,79.0,71.0,29.94,ESE,114,8.0,8.7,77,0.00,,,0.00,TxWx,2015-04-25 05:49:00,
2015-04-25 01:54:00,79.1,71.0,29.94,ESE,114,8.0,8.0,77,0.00,,,0.00,TxWx,2015-04-25 05:54:00,
2015-04-25 01:59:00,79.2,71.0,29.93,ESE,114,8.0,8.7,77,0.00,,,0.00,TxWx,2015-04-25 05:59:00,
2015-04-25 02:04:00,79.1,71.0,29.93,ESE,114,8.0,8.0,77,0.00,,,0.00,TxWx,2015-04-25 06:04:00,
2015-04-25 02:09:00,79.3,71.0,29.92,ESE,114,7.4,8.0,77,0.00,,,0.00,TxWx,2015-04-25 06:09:00,
2015-04-25 02:14:00,79.2,71.0,29.92,SE,136,6.8,8.0,77,0.00,,,0.00,TxWx,2015-04-25 06:14:00,
2015-04-25 02:19:00,79.0,71.0,29.92,ESE,114,6.2,6.2,77,0.00,,,0.00,TxWx,2015-04-25 06:19:00,
2015-04-25 02:24:00,79.1,71.0,29.92,SE,136,6.8,7.4,77,0.00,,,0.00,TxWx,2015-04-25 06:24:00,
2015-04-25 02:29:00,79.1,71.0,29.91,SE,136,5.0,5.0,77,0.00,,,0.00,TxWx,2015-04-25 06:29:00,
2015-04-25 02:34:00,79.0,71.0,29.91,ESE,114,6.2,6.2,78,0.00,,,0.00,TxWx,2015-04-25 06:34:00,
2015-04-25 02:39:00,79.1,71.0,29.91,ESE,114,6.8,6.8,78,0.00,,,0.00,TxWx,2015-04-25 06:39:00,
2015-04-25 02:44:00,79.0,71.0,29.91,ESE,114,7.4,7.4,78,0.00,,,0.00,TxWx,2015-04-25 06:44:00,
2015-04-25 02:49:00,78.9,71.0,29.91,ESE,114,6.2,6.2,77,0.00,,,0.00,TxWx,2015-04-25 06:49:00,
2015-04-25 02:54:00,79.0,71.0,29.91,ESE,114,5.6,6.2,77,0.00,,,0.00,TxWx,2015-04-25 06:54:00,
2015-04-25 02:59:00,78.8,71.0,29.90,ESE,114,6.2,6.2,77,0.00,,,0.00,TxWx,2015-04-25 06:59:00,
2015-04-25 03:04:00,78.8,71.0,29.90,ESE,114,6.2,6.2,77,0.00,,,0.00,TxWx,2015-04-25 07:04:00,
2015-04-25 03:09:00,79.1,71.0,29.90,ESE,114,6.8,7.4,77,0.00,,,0.00,TxWx,2015-04-25 07:09:00,
2015-04-25 03:14:00,79.1,71.0,29.90,ESE,114,8.7,8.7,77,0.00,,,0.00,TxWx,2015-04-25 07:14:00,
2015-04-25 03:19:00,78.9,71.0,29.90,SE,136,7.4,7.4,77,0.00,,,0.00,TxWx,2015-04-25 07:19:00,
2015-04-25 03:24:00,79.0,71.0,29.90,ESE,114,7.4,7.4,77,0.00,,,0.00,TxWx,2015-04-25 07:24:00,
2015-04-25 03:29:00,79.2,71.0,29.90,ESE,114,5.0,5.0,77,0.00,,,0.00,TxWx,2015-04-25 07:29:00,
2015-04-25 03:34:00,79.0,71.0,29.91,SE,136,5.0,5.6,77,0.00,,,0.00,TxWx,2015-04-25 07:34:00,
2015-04-25 03:39:00,79.1,71.0,29.91,SE,136,3.7,4.3,77,0.00,,,0.00,TxWx,2015-04-25 07:39:00,
2015-04-25 03:44:00,79.3,71.0,29.92,SE,136,5.0,6.2,77,0.00,,,0.00,TxWx,2015-04-25 07:44:00,
2015-04-25 03:49:00,79.3,71.0,29.92,East,91,9.9,9.9,77,0.00,,,0.00,TxWx,2015-04-25 07:49:00,
2015-04-25 03:54:00,79.4,71.0,29.92,SE,136,8.7,8.7,78,0.00,,,0.00,TxWx,2015-04-25 07:54:00,
2015-04-25 03:59:00,79.2,71.0,29.91,SE,136,8.7,8.7,78,0.00,,,0.00,TxWx,2015-04-25 07:59:00,
2015-04-25 04:04:00,79.0,71.0,29.91,ESE,114,11.8,11.8,77,0.00,,,0.00,TxWx,2015-04-25 08:04:00,
2015-04-25 04:09:00,79.1,71.0,29.91,ESE,114,8.7,11.1,77,0.00,,,0.00,TxWx,2015-04-25 08:09:00,
2015-04-25 04:14:00,78.9,71.0,29.91,ESE,114,9.3,9.9,77,0.00,,,0.00,TxWx,2015-04-25 08:14:00,
2015-04-25 04:19:00,79.0,71.0,29.91,ESE,114,11.1,11.1,77,0.00,,,0.00,TxWx,2015-04-25 08:19:00,
2015-04-25 04:24:00,78.8,71.0,29.91,SE,136,8.7,8.7,76,0.00,,,0.00,TxWx,2015-04-25 08:24:00,
2015-04-25 04:29:00,78.7,71.0,29.90,SE,136,9.3,9.3,77,0.00,,,0.00,TxWx,2015-04-25 08:29:00,
2015-04-25 04:34:00,79.0,71.0,29.90,ESE,114,9.3,10.5,77,0.00,,,0.00,TxWx,2015-04-25 08:34:00,
2015-04-25 04:39:00,78.8,71.0,29.90,ESE,114,8.0,9.3,76,0.00,,,0.00,TxWx,2015-04-25 08:39:00,
2015-04-25 04:44:00,78.7,71.0,29.90,ESE,114,11.1,11.1,76,0.00,,,0.00,TxWx,2015-04-25 08:44:00,
2015-04-25 04:49:00,78.8,71.0,29.90,ESE,114,8.7,9.9,76,0.00,,,0.00,TxWx,2015-04-25 08:49:00,
2015-04-25 04:54:00,78.9,71.0,29.89,SE,136,8.0,9.9,76,0.00,,,0.00,TxWx,2015-04-25 08:54:00,
2015-04-25 04:59:00,78.7,71.0,29.89,SE,136,10.5,10.5,76,0.00,,,0.00,TxWx,2015-04-25 08:59:00,
2015-04-25 05:04:00,78.6,70.0,29.89,SE,136,9.3,9.3,75,0.00,,,0.00,TxWx,2015-04-25 09:04:00,
2015-04-25 05:09:00,78.8,70.0,29.89,SE,136,10.5,10.5,75,0.00,,,0.00,TxWx,2015-04-25 09:09:00,
2015-04-25 05:14:00,78.6,70.0,29.90,SE,136,6.8,6.8,75,0.00,,,0.00,TxWx,2015-04-25 09:14:00,
2015-04-25 05:19:00,78.8,70.0,29.90,SE,136,7.4,7.4,75,0.00,,,0.00,TxWx,2015-04-25 09:19:00,
2015-04-25 05:24:00,78.8,70.0,29.90,ESE,114,9.9,11.1,74,0.00,,,0.00,TxWx,2015-04-25 09:24:00,
2015-04-25 05:29:00,78.8,70.0,29.90,SE,136,6.2,6.8,73,0.00,,,0.00,TxWx,2015-04-25 09:29:00,
2015-04-25 05:35:00,79.0,70.0,29.90,SE,136,6.8,6.8,73,0.00,,,0.00,TxWx,2015-04-25 09:35:00,
2015-04-25 05:40:00,78.5,70.0,29.90,SE,136,6.8,6.8,73,0.00,,,0.00,TxWx,2015-04-25 09:40:00,
2015-04-25 05:45:00,78.9,70.0,29.90,SE,136,5.6,7.4,73,0.00,,,0.00,TxWx,2015-04-25 09:45:00,
2015-04-25 05:50:00,79.0,69.0,29.91,SE,136,7.4,9.3,73,0.00,,,0.00,TxWx,2015-04-25 09:50:00,
2015-04-25 05:55:00,79.0,69.0,29.91,ESE,114,6.2,6.2,73,0.00,,,0.00,TxWx,2015-04-25 09:55:00,
2015-04-25 06:00:00,78.9,69.0,29.91,SE,136,5.6,6.2,73,0.00,,,0.00,TxWx,2015-04-25 10:00:00,
2015-04-25 06:05:00,78.7,70.0,29.92,SE,136,6.2,6.8,73,0.00,,,0.00,TxWx,2015-04-25 10:05:00,
2015-04-25 06:10:00,79.0,70.0,29.92,SE,136,8.0,8.0,74,0.00,,,0.00,TxWx,2015-04-25 10:10:00,
2015-04-25 06:15:00,78.9,70.0,29.92,ESE,114,6.2,8.0,74,0.00,,,0.00,TxWx,2015-04-25 10:15:00,
2015-04-25 06:20:00,78.7,69.0,29.92,ESE,114,9.3,9.3,73,0.00,,,0.00,TxWx,2015-04-25 10:20:00,
2015-04-25 06:25:00,79.0,70.0,29.92,SE,136,6.2,6.8,74,0.00,,,0.00,TxWx,2015-04-25 10:25:00,
2015-04-25 06:30:00,78.8,70.0,29.92,SE,136,6.2,6.2,74,0.00,,,0.00,TxWx,2015-04-25 10:30:00,
2015-04-25 06:34:00,78.7,70.0,29.92,ESE,114,4.3,5.6,74,0.00,,,0.00,TxWx,2015-04-25 10:34:00,
2015-04-25 06:40:00,78.7,70.0,29.92,ESE,114,6.8,8.0,74,0.00,,,0.00,TxWx,2015-04-25 10:40:00,
2015-04-25 06:45:00,78.8,70.0,29.92,ESE,114,6.8,8.0,75,0.00,,,0.00,TxWx,2015-04-25 10:45:00,
2015-04-25 06:50:00,78.6,70.0,29.92,East,91,7.4,7.4,75,0.00,,,0.00,TxWx,2015-04-25 10:50:00,
2015-04-25 06:55:00,78.9,70.0,29.92,SE,136,7.4,8.0,75,0.00,,,0.00,TxWx,2015-04-25 10:55:00,
2015-04-25 06:59:00,78.6,70.0,29.92,SE,136,8.0,8.0,75,0.00,,,0.00,TxWx,2015-04-25 10:59:00,
2015-04-25 07:05:00,78.7,70.0,29.91,SE,136,6.8,8.7,75,0.00,,,0.00,TxWx,2015-04-25 11:05:00,
2015-04-25 07:10:00,78.7,70.0,29.91,ESE,114,5.6,5.6,75,0.00,,,0.00,TxWx,2015-04-25 11:10:00,
2015-04-25 07:15:00,78.8,70.0,29.92,SE,136,9.3,10.5,75,0.00,,,0.00,TxWx,2015-04-25 11:15:00,
2015-04-25 07:20:00,78.8,70.0,29.92,SE,136,6.8,6.8,75,0.00,,,0.00,TxWx,2015-04-25 11:20:00,
2015-04-25 07:25:00,78.9,70.0,29.92,ESE,114,8.0,8.0,75,0.00,,,0.00,TxWx,2015-04-25 11:25:00,
2015-04-25 07:29:00,78.9,70.0,29.92,ESE,114,5.6,6.2,75,0.00,,,0.00,TxWx,2015-04-25 11:29:00,
2015-04-25 07:34:00,79.0,70.0,29.92,SE,136,6.2,6.2,75,0.00,,,0.00,TxWx,2015-04-25 11:34:00,
2015-04-25 07:39:00,78.9,70.0,29.92,SE,136,8.0,8.7,75,0.00,,,0.00,TxWx,2015-04-25 11:39:00,
2015-04-25 07:44:00,79.1,70.0,29.92,SE,136,8.0,8.7,75,0.00,,,0.00,TxWx,2015-04-25 11:44:00,
2015-04-25 07:49:00,79.2,70.0,29.92,SE,136,9.3,9.3,75,0.00,,,0.00,TxWx,2015-04-25 11:49:00,
2015-04-25 07:54:00,79.2,70.0,29.93,ESE,114,7.4,8.7,75,0.00,,,0.00,TxWx,2015-04-25 11:54:00,
2015-04-25 07:59:00,79.5,70.0,29.93,SSE,159,8.7,8.7,75,0.00,,,0.00,TxWx,2015-04-25 11:59:00,
2015-04-25 08:04:00,79.4,70.0,29.93,SE,136,7.4,7.4,74,0.00,,,0.00,TxWx,2015-04-25 12:04:00,
2015-04-25 08:09:00,79.7,71.0,29.93,ESE,114,4.3,5.6,75,0.00,,,0.00,TxWx,2015-04-25 12:09:00,
2015-04-25 08:14:00,79.5,70.0,29.93,SE,136,6.2,6.8,75,0.00,,,0.00,TxWx,2015-04-25 12:14:00,
2015-04-25 08:19:00,79.8,71.0,29.94,ESE,114,8.7,8.7,74,0.00,,,0.00,TxWx,2015-04-25 12:19:00,
2015-04-25 08:24:00,79.8,71.0,29.94,SE,136,7.4,7.4,74,0.00,,,0.00,TxWx,2015-04-25 12:24:00,
2015-04-25 08:29:00,79.8,71.0,29.94,SE,136,6.2,6.2,73,0.00,,,0.00,TxWx,2015-04-25 12:29:00,
2015-04-25 08:34:00,79.8,70.0,29.94,SE,136,6.2,6.8,73,0.00,,,0.00,TxWx,2015-04-25 12:34:00,
2015-04-25 08:39:00,80.2,70.0,29.94,SE,136,5.0,5.0,73,0.00,,,0.00,TxWx,2015-04-25 12:39:00,
2015-04-25 08:44:00,80.1,70.0,29.95,ESE,114,7.4,7.4,73,0.00,,,0.00,TxWx,2015-04-25 12:44:00,
2015-04-25 08:49:00,80.0,70.0,29.95,SE,136,3.7,4.3,73,0.00,,,0.00,TxWx,2015-04-25 12:49:00,
2015-04-25 08:54:00,80.2,70.0,29.94,South,181,6.8,7.4,73,0.00,,,0.00,TxWx,2015-04-25 12:54:00,
2015-04-25 08:59:00,80.2,70.0,29.94,ESE,114,5.0,5.0,73,0.00,,,0.00,TxWx,2015-04-25 12:59:00,
2015-04-25 09:04:00,80.3,71.0,29.94,SE,136,5.6,5.6,73,0.00,,,0.00,TxWx,2015-04-25 13:04:00,
2015-04-25 09:09:00,80.1,71.0,29.94,SSE,159,6.8,6.8,73,0.00,,,0.00,TxWx,2015-04-25 13:09:00,
2015-04-25 09:14:00,80.3,70.0,29.94,South,181,6.8,6.8,73,0.00,,,0.00,TxWx,2015-04-25 13:14:00,
2015-04-25 09:19:00,80.5,71.0,29.94,SE,136,5.6,6.8,73,0.00,,,0.00,TxWx,2015-04-25 13:19:00,
2015-04-25 09:24:00,80.3,70.0,29.94,SE,136,5.0,5.0,72,0.00,,,0.00,TxWx,2015-04-25 13:24:00,
2015-04-25 09:29:00,80.8,71.0,29.94,SE,136,5.0,5.6,73,0.00,,,0.00,TxWx,2015-04-25 13:29:00,
2015-04-25 09:34:00,80.2,70.0,29.95,SSE,159,6.2,6.2,73,0.00,,,0.00,TxWx,2015-04-25 13:34:00,
2015-04-25 09:39:00,80.5,70.0,29.94,ESE,114,5.6,6.2,73,0.00,,,0.00,TxWx,2015-04-25 13:39:00,
2015-04-25 09:44:00,80.6,71.0,29.95,SE,136,5.0,5.0,72,0.00,,,0.00,TxWx,2015-04-25 13:44:00,
2015-04-25 09:49:00,80.5,70.0,29.95,SE,136,7.4,7.4,71,0.00,,,0.00,TxWx,2015-04-25 13:49:00,
2015-04-25 09:54:00,80.5,70.0,29.94,SE,136,6.8,7.4,71,0.00,,,0.00,TxWx,2015-04-25 13:54:00,
2015-04-25 09:59:00,80.8,71.0,29.95,SE,136,5.0,6.2,72,0.00,,,0.00,TxWx,2015-04-25 13:59:00,
2015-04-25 10:04:00,81.1,71.0,29.95,ESE,114,6.8,7.4,72,0.00,,,0.00,TxWx,2015-04-25 14:04:00,
2015-04-25 10:09:00,81.3,71.0,29.95,SE,136,5.0,5.0,72,0.00,,,0.00,TxWx,2015-04-25 14:09:00,
2015-04-25 10:14:00,80.8,71.0,29.95,SSE,159,8.0,8.0,71,0.00,,,0.00,TxWx,2015-04-25 14:14:00,
2015-04-25 10:19:00,80.9,71.0,29.95,SSE,159,6.8,6.8,72,0.00,,,0.00,TxWx,2015-04-25 14:19:00,
2015-04-25 10:24:00,80.9,71.0,29.95,SSE,159,6.8,6.8,72,0.00,,,0.00,TxWx,2015-04-25 14:24:00,
2015-04-25 10:29:00,80.8,71.0,29.95,SE,136,8.7,11.1,72,0.00,,,0.00,TxWx,2015-04-25 14:29:00,
2015-04-25 10:34:00,81.1,71.0,29.95,South,181,9.3,9.9,73,0.00,,,0.00,TxWx,2015-04-25 14:34:00,
2015-04-25 10:39:00,81.1,71.0,29.95,SE,136,9.3,9.3,73,0.00,,,0.00,TxWx,2015-04-25 14:39:00,
2015-04-25 10:44:00,81.1,71.0,29.95,SSE,159,6.2,6.8,73,0.00,,,0.00,TxWx,2015-04-25 14:44:00,
2015-04-25 10:49:00,81.0,71.0,29.95,SSE,159,7.4,8.0,73,0.00,,,0.00,TxWx,2015-04-25 14:49:00,
2015-04-25 10:54:00,81.2,71.0,29.95,SE,136,9.9,9.9,73,0.00,,,0.00,TxWx,2015-04-25 14:54:00,
2015-04-25 10:59:00,81.6,72.0,29.95,SW,226,5.0,5.0,72,0.00,,,0.00,TxWx,2015-04-25 14:59:00,
2015-04-25 11:04:00,81.7,72.0,29.95,SE,136,6.8,8.0,73,0.00,,,0.00,TxWx,2015-04-25 15:04:00,
2015-04-25 11:09:00,81.3,71.0,29.95,SE,136,6.8,9.3,72,0.00,,,0.00,TxWx,2015-04-25 15:09:00,
2015-04-25 11:14:00,81.9,72.0,29.95,SSW,204,5.6,5.6,73,0.00,,,0.00,TxWx,2015-04-25 15:14:00,
2015-04-25 11:19:00,81.6,72.0,29.95,SSE,159,6.2,9.9,72,0.00,,,0.00,TxWx,2015-04-25 15:19:00,
2015-04-25 11:24:00,81.5,72.0,29.95,South,181,8.7,9.9,72,0.00,,,0.00,TxWx,2015-04-25 15:24:00,
2015-04-25 11:29:00,82.1,72.0,29.95,SE,136,7.4,7.4,72,0.00,,,0.00,TxWx,2015-04-25 15:29:00,
2015-04-25 11:34:00,82.1,72.0,29.97,SE,136,6.2,8.7,72,0.00,,,0.00,TxWx,2015-04-25 15:34:00,
2015-04-25 11:39:00,82.1,72.0,29.95,SSW,204,8.7,8.7,71,0.00,,,0.00,TxWx,2015-04-25 15:39:00,
2015-04-25 11:44:00,81.6,72.0,29.95,SSE,159,15.5,15.5,72,0.00,,,0.00,TxWx,2015-04-25 15:44:00,
2015-04-25 11:49:00,81.8,72.0,29.95,SSE,159,12.4,12.4,73,0.00,,,0.00,TxWx,2015-04-25 15:49:00,
2015-04-25 11:54:00,81.7,72.0,29.94,South,181,8.7,9.9,73,0.00,,,0.00,TxWx,2015-04-25 15:54:00,
2015-04-25 11:59:00,81.6,72.0,29.94,ESE,114,9.9,9.9,73,0.00,,,0.00,TxWx,2015-04-25 15:59:00,
2015-04-25 12:04:00,82.0,73.0,29.95,South,181,10.5,10.5,74,0.00,,,0.00,TxWx,2015-04-25 16:04:00,
2015-04-25 12:09:00,81.7,73.0,29.94,SSE,159,9.3,9.3,74,0.00,,,0.00,TxWx,2015-04-25 16:09:00,
2015-04-25 12:14:00,81.4,72.0,29.94,SSE,159,11.8,11.8,74,0.00,,,0.00,TxWx,2015-04-25 16:14:00,
2015-04-25 12:19:00,81.6,73.0,29.94,South,181,11.1,13.6,75,0.00,,,0.00,TxWx,2015-04-25 16:19:00,
2015-04-25 12:24:00,81.9,73.0,29.94,SSE,159,9.9,9.9,75,0.00,,,0.00,TxWx,2015-04-25 16:24:00,
2015-04-25 12:29:00,81.7,73.0,29.94,SSE,159,10.5,12.4,75,0.00,,,0.00,TxWx,2015-04-25 16:29:00,
2015-04-25 12:34:00,81.8,73.0,29.94,SE,136,9.3,9.3,75,0.00,,,0.00,TxWx,2015-04-25 16:34:00,
2015-04-25 12:39:00,81.7,73.0,29.94,SE,136,7.4,7.4,75,0.00,,,0.00,TxWx,2015-04-25 16:39:00,
2015-04-25 12:44:00,81.6,73.0,29.94,SE,136,11.1,11.1,75,0.00,,,0.00,TxWx,2015-04-25 16:44:00,
2015-04-25 12:49:00,81.9,73.0,29.93,SSE,159,8.0,9.3,76,0.00,,,0.00,TxWx,2015-04-25 16:49:00,
2015-04-25 12:54:00,81.9,73.0,29.93,SSE,159,11.8,13.0,76,0.00,,,0.00,TxWx,2015-04-25 16:54:00,
2015-04-25 12:59:00,81.8,73.0,29.93,SE,136,11.1,11.1,75,0.00,,,0.00,TxWx,2015-04-25 16:59:00,
2015-04-25 13:04:00,81.7,73.0,29.93,SSE,159,11.8,13.0,76,0.00,,,0.00,TxWx,2015-04-25 17:04:00,
2015-04-25 13:09:00,81.6,73.0,29.92,SE,136,11.8,11.8,75,0.00,,,0.00,TxWx,2015-04-25 17:09:00,
2015-04-25 13:14:00,81.8,74.0,29.92,SSE,159,7.4,7.4,76,0.00,,,0.00,TxWx,2015-04-25 17:14:00,
2015-04-25 13:19:00,82.0,73.0,29.92,South,181,6.8,6.8,76,0.00,,,0.00,TxWx,2015-04-25 17:19:00,
2015-04-25 13:24:00,81.8,73.0,29.92,SE,136,10.5,11.1,76,0.00,,,0.00,TxWx,2015-04-25 17:24:00,
2015-04-25 13:29:00,82.1,74.0,29.92,SSE,159,7.4,8.0,76,0.00,,,0.00,TxWx,2015-04-25 17:29:00,
2015-04-25 13:39:00,81.9,74.0,29.92,SE,136,8.0,9.3,77,0.00,,,0.00,TxWx,2015-04-25 17:39:00,
2015-04-25 13:44:00,81.4,73.0,29.92,SSE,159,9.3,13.6,76,0.00,,,0.00,TxWx,2015-04-25 17:44:00,
2015-04-25 13:49:00,81.5,74.0,29.92,SSE,159,8.0,8.0,77,0.00,,,0.00,TxWx,2015-04-25 17:49:00,
2015-04-25 13:59:00,82.2,74.0,29.91,SE,136,8.0,9.9,76,0.00,,,0.00,TxWx,2015-04-25 17:59:00,
2015-04-25 14:04:00,82.5,73.0,29.91,ESE,114,9.3,9.9,76,0.00,,,0.00,TxWx,2015-04-25 18:04:00,
2015-04-25 14:09:00,82.4,73.0,29.91,SE,136,6.2,6.8,75,0.00,,,0.00,TxWx,2015-04-25 18:09:00,
2015-04-25 14:14:00,82.8,74.0,29.90,SE,136,8.7,8.7,76,0.00,,,0.00,TxWx,2015-04-25 18:14:00,
2015-04-25 14:19:00,83.0,74.0,29.90,SE,136,7.4,8.0,76,0.00,,,0.00,TxWx,2015-04-25 18:19:00,
2015-04-25 14:23:00,82.9,74.0,29.90,ESE,114,6.8,6.8,75,0.00,,,0.00,TxWx,2015-04-25 18:23:00,
2015-04-25 14:28:00,82.8,74.0,29.89,SE,136,9.9,9.9,75,0.00,,,0.00,TxWx,2015-04-25 18:28:00,
2015-04-25 14:33:00,82.6,74.0,29.89,SE,136,6.8,8.7,75,0.00,,,0.00,TxWx,2015-04-25 18:33:00,
2015-04-25 14:38:00,82.5,73.0,29.88,SSE,159,9.3,9.3,75,0.00,,,0.00,TxWx,2015-04-25 18:38:00,
2015-04-25 14:43:00,82.4,73.0,29.88,SE,136,10.5,10.5,76,0.00,,,0.00,TxWx,2015-04-25 18:43:00,
2015-04-25 14:48:00,82.5,74.0,29.88,SSE,159,9.9,10.5,76,0.00,,,0.00,TxWx,2015-04-25 18:48:00,